Hourly Weather el Vendrell

Today, 7 July, Tuesday

Time Temperature Precipitation Wind Pressure Humidity
00:00 +25°C° 0 mm 4 mps 756 mmHg 71%
01:00 +25°C° 0 mm 4 mps 756 mmHg 69%
02:00 +25°C° 0 mm 4 mps 756 mmHg 68%
03:00 +23°C° 0 mm 4 mps 755 mmHg 67%
04:00 +23°C° 0 mm 4 mps 755 mmHg 66%
05:00 +24°C° 0 mm 3 mps 756 mmHg 64%
06:00 +24°C° 0 mm 3 mps 756 mmHg 62%
07:00 +26°C° 0 mm 3 mps 756 mmHg 59%
08:00 +27°C° 0 mm 3 mps 756 mmHg 56%
09:00 +28°C° 0 mm 3 mps 756 mmHg 53%
10:00 +29°C° 0 mm 3 mps 756 mmHg 51%
11:00 +30°C° 0 mm 3 mps 756 mmHg 49%
12:00 +31°C° 0 mm 3 mps 756 mmHg 48%
13:00 +31°C° 0 mm 3 mps 756 mmHg 47%
14:00 +31°C° 0 mm 3 mps 756 mmHg 45%
15:00 +31°C° 0 mm 3 mps 755 mmHg 44%
16:00 +30°C° 0 mm 3 mps 755 mmHg 47%
17:00 +29°C° 0 mm 3 mps 755 mmHg 49%
18:00 +29°C° 0 mm 2 mps 755 mmHg 52%
19:00 +27°C° 0 mm 2 mps 756 mmHg 57%
20:00 +26°C° 0 mm 2 mps 756 mmHg 62%
21:00 +25°C° 0 mm 2 mps 757 mmHg 67%
22:00 +25°C° 0 mm 2 mps 757 mmHg 69%
23:00 +25°C° 0 mm 1 mps 757 mmHg 71%

Tomorrow, 8 July, Wednesday

Time Temperature Precipitation Wind Pressure Humidity
00:00 +24°C° 0 mm 1 mps 757 mmHg 73%
01:00 +24°C° 0 mm 1 mps 756 mmHg 74%
02:00 +24°C° 0 mm 1 mps 756 mmHg 74%
03:00 +24°C° 0 mm 1 mps 756 mmHg 74%
04:00 +24°C° 0 mm 1 mps 756 mmHg 72%
05:00 +22°C° 0 mm 0 mps 756 mmHg 69%
06:00 +23°C° 0 mm 0 mps 756 mmHg 66%
07:00 +26°C° 0 mm 1 mps 756 mmHg 62%
08:00 +28°C° 0 mm 1 mps 757 mmHg 58%
09:00 +29°C° 0 mm 2 mps 757 mmHg 54%
10:00 +30°C° 0 mm 2 mps 757 mmHg 54%
11:00 +30°C° 0 mm 3 mps 757 mmHg 54%
12:00 +31°C° 0 mm 3 mps 756 mmHg 54%
13:00 +31°C° 0 mm 3 mps 756 mmHg 55%
14:00 +31°C° 0 mm 3 mps 756 mmHg 56%
15:00 +32°C° 0 mm 4 mps 756 mmHg 57%
16:00 +30°C° 0 mm 4 mps 756 mmHg 60%
17:00 +29°C° 0 mm 4 mps 756 mmHg 64%
18:00 +28°C° 0 mm 4 mps 756 mmHg 67%
19:00 +28°C° 0 mm 3 mps 756 mmHg 70%
20:00 +27°C° 0 mm 2 mps 757 mmHg 73%
21:00 +26°C° 0 mm 2 mps 757 mmHg 76%
22:00 +26°C° 0 mm 2 mps 757 mmHg 76%
23:00 +26°C° 0 mm 2 mps 756 mmHg 76%

Day after tomorrow, 9 July, Thursday

Time Temperature Precipitation Wind Pressure Humidity
00:00 +26°C° 0 mm 2 mps 756 mmHg 76%
01:00 +25°C° 0 mm 2 mps 756 mmHg 79%
02:00 +25°C° 0 mm 2 mps 756 mmHg 82%
03:00 +25°C° 0 mm 1 mps 756 mmHg 85%
04:00 +25°C° 0 mm 1 mps 756 mmHg 83%
05:00 +25°C° 0 mm 1 mps 756 mmHg 81%
06:00 +26°C° 0 mm 1 mps 757 mmHg 79%
07:00 +28°C° 0 mm 1 mps 757 mmHg 70%
08:00 +30°C° 0 mm 2 mps 757 mmHg 60%
09:00 +31°C° 0 mm 2 mps 757 mmHg 51%
10:00 +33°C° 0 mm 3 mps 757 mmHg 50%
11:00 +33°C° 0 mm 3 mps 757 mmHg 50%
12:00 +33°C° 0 mm 4 mps 756 mmHg 50%
13:00 +33°C° 0 mm 3 mps 756 mmHg 48%
14:00 +34°C° 0 mm 3 mps 756 mmHg 45%
15:00 +34°C° 0 mm 3 mps 755 mmHg 43%
16:00 +33°C° 0 mm 3 mps 755 mmHg 47%
17:00 +31°C° 0 mm 3 mps 755 mmHg 51%
18:00 +30°C° 0 mm 3 mps 756 mmHg 55%
19:00 +29°C° 0 mm 2 mps 756 mmHg 57%
20:00 +28°C° 0 mm 1 mps 756 mmHg 60%
21:00 +27°C° 0 mm 1 mps 756 mmHg 62%
22:00 +27°C° 0 mm 1 mps 756 mmHg 62%
23:00 +25°C° 0 mm 0 mps 756 mmHg 61%

10 July, Friday

Time Temperature Precipitation Wind Pressure Humidity
00:00 +25°C° 0 mm 0 mps 755 mmHg 60%
01:00 +26°C° 0 mm 1 mps 755 mmHg 64%
02:00 +26°C° 0 mm 2 mps 755 mmHg 67%
03:00 +26°C° 0 mm 2 mps 755 mmHg 71%
04:00 +26°C° 0 mm 2 mps 755 mmHg 68%
05:00 +27°C° 0 mm 2 mps 756 mmHg 65%
06:00 +27°C° 0 mm 1 mps 756 mmHg 61%
07:00 +29°C° 0 mm 2 mps 756 mmHg 54%
08:00 +31°C° 0 mm 2 mps 756 mmHg 47%
09:00 +34°C° 0 mm 3 mps 756 mmHg 40%
10:00 +34°C° 0 mm 3 mps 756 mmHg 43%
11:00 +34°C° 0 mm 3 mps 756 mmHg 46%
12:00 +34°C° 0 mm 3 mps 756 mmHg 49%
13:00 +33°C° 0 mm 4 mps 755 mmHg 51%
14:00 +33°C° 0 mm 4 mps 755 mmHg 54%
15:00 +32°C° 0 mm 5 mps 755 mmHg 56%
16:00 +30°C° 0 mm 4 mps 755 mmHg 59%
17:00 +30°C° 0 mm 4 mps 755 mmHg 63%
18:00 +29°C° 0 mm 4 mps 755 mmHg 66%
19:00 +28°C° 0 mm 3 mps 756 mmHg 71%
20:00 +27°C° 0 mm 3 mps 756 mmHg 76%
21:00 +26°C° 0 mm 2 mps 757 mmHg 81%
22:00 +26°C° 0 mm 2 mps 757 mmHg 81%
23:00 +26°C° 0 mm 1 mps 757 mmHg 80%

11 July, Saturday

Time Temperature Precipitation Wind Pressure Humidity
00:00 +25°C° 0 mm 1 mps 757 mmHg 80%
01:00 +25°C° 0 mm 1 mps 757 mmHg 79%
02:00 +25°C° 0 mm 1 mps 756 mmHg 79%
03:00 +25°C° 0 mm 1 mps 756 mmHg 78%
04:00 +25°C° 0 mm 1 mps 757 mmHg 76%
05:00 +26°C° 0 mm 1 mps 757 mmHg 74%
06:00 +26°C° 0 mm 1 mps 757 mmHg 72%
07:00 +27°C° 0 mm 1 mps 757 mmHg 65%
08:00 +29°C° 0 mm 1 mps 757 mmHg 59%
09:00 +30°C° 0 mm 2 mps 757 mmHg 53%
10:00 +31°C° 0 mm 3 mps 757 mmHg 52%
11:00 +32°C° 0 mm 4 mps 757 mmHg 51%
12:00 +32°C° 0 mm 5 mps 757 mmHg 49%
13:00 +32°C° 0 mm 5 mps 757 mmHg 52%
14:00 +32°C° 0 mm 5 mps 757 mmHg 55%
15:00 +30°C° 0 mm 4 mps 756 mmHg 58%
16:00 +30°C° 0 mm 4 mps 756 mmHg 61%
17:00 +29°C° 0 mm 3 mps 756 mmHg 65%
18:00 +28°C° 0 mm 3 mps 756 mmHg 68%
19:00 +27°C° 0 mm 2 mps 756 mmHg 71%
20:00 +26°C° 0 mm 2 mps 757 mmHg 74%
21:00 +25°C° 0 mm 1 mps 757 mmHg 77%
22:00 +25°C° 0 mm 1 mps 757 mmHg 77%
23:00 +25°C° 0 mm 1 mps 757 mmHg 78%

12 July, Sunday

Time Temperature Precipitation Wind Pressure Humidity
00:00 +25°C° 0 mm 1 mps 757 mmHg 79%
01:00 +24°C° 0 mm 1 mps 757 mmHg 77%
02:00 +24°C° 0 mm 2 mps 757 mmHg 76%
03:00 +24°C° 0 mm 2 mps 757 mmHg 75%
04:00 +25°C° 0 mm 2 mps 757 mmHg 71%
05:00 +25°C° 0 mm 3 mps 757 mmHg 66%
06:00 +26°C° 0 mm 3 mps 757 mmHg 62%
07:00 +27°C° 0 mm 4 mps 757 mmHg 56%
08:00 +28°C° 0 mm 4 mps 757 mmHg 51%
09:00 +29°C° 0 mm 4 mps 758 mmHg 45%
10:00 +30°C° 0 mm 4 mps 758 mmHg 44%
11:00 +30°C° 0 mm 4 mps 758 mmHg 42%
12:00 +30°C° 0 mm 4 mps 758 mmHg 41%
13:00 +30°C° 0 mm 4 mps 757 mmHg 41%
14:00 +30°C° 0 mm 4 mps 757 mmHg 41%
15:00 +30°C° 0 mm 4 mps 757 mmHg 41%
16:00 +30°C° 0 mm 3 mps 756 mmHg 43%
17:00 +29°C° 0 mm 3 mps 756 mmHg 44%
18:00 +29°C° 0 mm 3 mps 756 mmHg 46%
19:00 +28°C° 0 mm 2 mps 757 mmHg 49%
20:00 +27°C° 0 mm 2 mps 757 mmHg 51%
21:00 +26°C° 0 mm 1 mps 758 mmHg 54%
22:00 +26°C° 0 mm 1 mps 758 mmHg 55%
23:00 +26°C° 0 mm 1 mps 757 mmHg 55%
Show more